Tiempo atmosférico en la estación meteorológica de Tàrrega, Lleida (363 m.)



Fecha
DESCASC
Temp. máxima en grados centígrados (hora)
DESCASC
Temp. mínima en grados centígrados (hora)
DESCASC
Temp. media en grados centígrados
DESCASC
Racha de viento máxima en m/sg (hora)
DESCASC
Velocidad máxima media en intervalos de 10 minutos(hora)
DESCASC
Precipitaciones diarias en mm
DESCASC
Precipitaciones de 00:00 a 06:00 en mm
DESCASC
Precipitaciones de 06:00 a 12:00 en mm
DESCASC
Precipitaciones de 12:00 a 18:00 en mm
DESCASC
Precipitaciones de 18:00 a 24:00 en mm
DESCASC
22-08-2019 -- (--) -- (--) -- 6.39 (16:20) 2.78 (21:20) 0 0 0 0 0
21-08-2019 -- (--) -- (--) -- 5.83 (13:50) 2.22 (14:40) 0 0 0 0 0
20-08-2019 -- (--) -- (--) -- 10.56 (04:50) 6.11 (04:50) 9.1 0 6.1 3 0
19-08-2019 -- (--) -- (--) -- 7.22 (18:10) 3.33 (22:00) 0 0 0 0 0
18-08-2019 -- (--) -- (--) -- 9.17 (19:20) 4.44 (20:20) 0 0 0 0 0
17-08-2019 -- (--) -- (--) -- 10.28 (19:30) 4.72 (17:30) 0 0 0 0 0
16-08-2019 -- (--) -- (--) -- 6.39 (20:30) 3.06 (21:30) 0 0 0 0 0
15-08-2019 -- (--) -- (--) -- 7.22 (15:30) 3.33 (21:10) 0 0 0 0 0
14-08-2019 -- (--) -- (--) -- 7.5 (16:30) 3.89 (21:50) 0 0 0 0 0
13-08-2019 -- (--) -- (--) -- 7.78 (14:30) 2.78 (14:30) 0 0 0 0 0
12-08-2019 -- (--) -- (--) -- 8.06 (16:20) 4.17 (00:20) 0 0 0 0 0
11-08-2019 -- (--) -- (--) -- 7.22 (23:50) 4.17 (23:50) 0 0 0 0 0
10-08-2019 -- (--) -- (--) -- 8.06 (01:20) 2.78 (01:00) 0 0 0 0 0
09-08-2019 -- (--) -- (--) -- 7.78 (16:20) 3.33 (18:00) 0 0 0 0 0
08-08-2019 -- (--) -- (--) -- 7.22 (20:50) 3.06 (23:10) 0.1 0.1 0 0 0
07-08-2019 -- (--) -- (--) -- 6.67 (03:40) 3.33 (01:20) 0 0 0 0 0
06-08-2019 -- (--) -- (--) -- 6.39 (03:20) 3.89 (03:10) 0 0 0 0 0
05-08-2019 -- (--) -- (--) -- 10.28 (19:20) 4.17 (19:00) 0 0 0 0 0
04-08-2019 -- (--) -- (--) -- 10 (17:00) 4.17 (18:20) 0 0 0 0 0
03-08-2019 -- (--) -- (--) -- 10 (17:20) 4.72 (17:50) 0 0 0 0 0
02-08-2019 -- (--) -- (--) -- 9.72 (18:40) 3.89 (21:40) 0 0 0 0 0
01-08-2019 -- (--) -- (--) -- 8.61 (18:40) 4.17 (18:10) 0 0 0 0 0
31-07-2019 -- (--) -- (--) -- 6.67 (21:10) 3.33 (20:20) 0 0 0 0 0
30-07-2019 -- (--) -- (--) -- 6.67 (00:20) 3.61 (00:20) 0 0 0 0 0
29-07-2019 -- (--) -- (--) -- 7.78 (23:30) 3.89 (23:30) 0 0 0 0 0
28-07-2019 -- (--) -- (--) -- 8.33 (02:10) 2.78 (14:40) 0 0 0 0 0
27-07-2019 -- (--) -- (--) -- 9.44 (18:00) 3.89 (18:50) 0.1 0 0 0.1 0
26-07-2019 -- (--) -- (--) -- 11.39 (16:30) 3.06 (16:20) 1.8 0 0 1.8 0

Gráficas

Temp. máximas Temp. mínimas Temp. medias Precipitaciones Rachas de viento máximas Velocidades máximas media en intervalos de 10 minutos

Datos horarios

Fecha y hora oficial Temperatura (ºC) Velocidad del viento (km/h) Dirección del viento Racha (km/h) Dirección de racha Precipitación (mm) Presión (hPa) Tendencia (hPa) Humedad (%)
2019-08-24 23:00:00 -- 8 Sudeste 24 Sudeste 0 -- -- 98
2019-08-24 22:00:00 -- 12 Sudeste 25 Sudeste 0 -- -- 98
2019-08-24 21:00:00 -- 11 Sudeste 23 Sudeste 0 -- -- 98
2019-08-24 20:00:00 -- 9 Sudeste 24 Sudeste 0 -- -- 98
2019-08-24 19:00:00 -- 7 Sudeste 22 Sudeste 0 -- -- 97
2019-08-24 18:00:00 -- 6 Sur 21 Sudoeste 0 -- -- 97
2019-08-24 17:00:00 -- 5 Oeste 20 Noroeste 0 -- -- 97
2019-08-24 16:00:00 -- 4 Oeste 22 Sudoeste 0 -- -- 97
2019-08-24 15:00:00 -- 6 Sudoeste 18 Sudoeste 0 -- -- 97
2019-08-24 14:00:00 -- 6 Sudoeste 18 Oeste 0 -- -- 97
2019-08-24 13:00:00 -- 3 Sudoeste 15 Noroeste 0 -- -- 97
2019-08-24 12:00:00 -- 3 Oeste 12 Sudoeste 0 -- -- 97
2019-08-24 11:00:00 -- 3 Oeste 9 Sudoeste 0 -- -- 97
2019-08-24 10:00:00 -- 0 Calma 6 Sudoeste 0 -- -- 97
2019-08-24 09:00:00 -- 0 Calma 8 Sudeste 0 -- -- 99
2019-08-24 08:00:00 -- 5 Sudeste 9 Sur 0 -- -- 99
2019-08-24 07:00:00 -- 3 Sur 7 Sudeste 0 -- -- 99
2019-08-24 06:00:00 -- 2 Sudeste 10 Este 0 -- -- 99
2019-08-24 05:00:00 -- 0 Calma 10 Sudeste 0 -- -- 99
2019-08-24 04:00:00 -- 4 Sudeste 7 Sudeste 0 -- -- 99
2019-08-24 03:00:00 -- 2 Sudeste 7 Sudeste 0 -- -- 99
2019-08-24 02:00:00 -- 0 Calma 7 Este 0 -- -- 99
2019-08-24 01:00:00 -- 2 Sudeste 9 Noroeste 0 -- -- 99
2019-08-24 00:00:00 -- 0 Calma 15 Este 0 -- -- 99
2019-08-23 23:00:00 -- 7 Sudeste 17 Sudeste 0 -- -- 99
2019-08-23 22:00:00 -- 12 Sudeste 28 Sudeste 0 -- -- 98
2019-08-23 21:00:00 -- 12 Sudeste 25 Sudeste 0 -- -- 98
2019-08-23 20:00:00 -- 6 Sur 20 Sudeste 0 -- -- 98
2019-08-23 19:00:00 -- 5 Sur 18 Sur 0 -- -- 97
2019-08-23 18:00:00 -- 3 Oeste 17 Noroeste 0 -- -- 97
2019-08-23 17:00:00 -- 3 Oeste 18 Noroeste 0 -- -- 97
2019-08-23 16:00:00 -- 9 Noroeste 19 Oeste 0 -- -- 97
2019-08-23 15:00:00 -- 6 Oeste 19 Noroeste 0 -- -- 97
2019-08-23 14:00:00 -- 6 Oeste 18 Noroeste 0 -- -- 97
2019-08-23 13:00:00 -- 3 Oeste 15 Noroeste 0 -- -- 97
2019-08-23 12:00:00 -- 3 Noroeste 15 Noroeste 0 -- -- 97
2019-08-23 11:00:00 -- 4 Noroeste 11 Oeste 0 -- -- 97
2019-08-23 10:00:00 -- 4 Norte 9 Norte 0 -- -- 97
2019-08-23 09:00:00 -- 3 Sudeste 9 Este 0 -- -- 99
2019-08-23 08:00:00 -- 6 Sudeste 11 Sudeste 0 -- -- 99
2019-08-23 07:00:00 -- 5 Sudeste 10 Sudeste 0 -- -- 99
2019-08-23 06:00:00 -- 4 Sudeste 9 Este 0 -- -- 99
2019-08-23 05:00:00 -- 3 Sudeste 12 Sur 0 -- -- 99
2019-08-23 04:00:00 -- 5 Sudeste 8 Sudeste 0 -- -- 99
2019-08-23 03:00:00 -- 3 Sudeste 11 Nordeste 0 -- -- 99
2019-08-23 02:00:00 -- 4 Nordeste 12 Nordeste 0 -- -- 99
2019-08-23 01:00:00 -- 5 Este 13 Sudeste 0 -- -- 99
2019-08-23 00:00:00 -- 9 Sudeste 18 Sudeste 0 -- -- 99
2019-08-22 23:00:00 -- 8 Sudeste 16 Sudeste 0 -- -- 99
2019-08-22 22:00:00 -- 5 Este 21 Sudeste 0 -- -- 98
2019-08-22 21:00:00 -- 7 Sudeste 14 Sudeste 0 -- -- 98
2019-08-22 20:00:00 -- 3 Noroeste 14 Noroeste 0 -- -- 98
2019-08-22 19:00:00 -- 4 Sudoeste 16 Sudoeste 0 -- -- 97
2019-08-22 18:00:00 -- 3 Sudoeste 17 Sudoeste 0 -- -- 97
2019-08-22 17:00:00 -- 6 Sudoeste 23 Sudoeste 0 -- -- 97
2019-08-22 16:00:00 -- 8 Sudoeste 20 Sudoeste 0 -- -- 97
2019-08-22 15:00:00 -- 7 Sudoeste 18 Sudoeste 0 -- -- 97
2019-08-22 14:00:00 -- 5 Oeste 20 Oeste 0 -- -- 97
2019-08-22 13:00:00 -- 4 Sudoeste 19 Sudoeste 0 -- -- 97
2019-08-22 12:00:00 -- 3 Oeste 16 Oeste 0 -- -- 97
2019-08-22 11:00:00 -- 5 Oeste 16 Sudoeste 0 -- -- 97
2019-08-22 10:00:00 -- 6 Sudoeste 17 Sudoeste 0 -- -- 98
2019-08-22 09:00:00 -- 4 Oeste 14 Sudoeste 0 -- -- 68
2019-08-22 08:00:00 -- 4 Noroeste 10 Oeste 0 -- -- 74
2019-08-22 07:00:00 -- 3 Sudoeste 8 Oeste 0 -- -- 78
2019-08-22 06:00:00 -- 2 Sudeste 6 Sudeste 0 -- -- 84
2019-08-22 05:00:00 -- 4 Sudeste 8 Sudeste 0 -- -- 85
2019-08-22 04:00:00 -- 3 Sudeste 8 Sudeste 0 -- -- 86
2019-08-22 03:00:00 -- 2 Este 8 Este 0 -- -- 86
2019-08-22 02:00:00 -- 2 Nordeste 5 Nordeste 0 -- -- 87
2019-08-22 01:00:00 -- 3 Sudeste 8 Sudeste 0 -- -- 90
2019-08-22 00:00:00 -- 5 Sudeste 9 Este 0 -- -- 95
2019-08-21 23:00:00 -- 5 Sudeste 9 Sudeste 0 -- -- 99
2019-08-21 22:00:00 -- 3 Sudeste 11 Sudeste 0 -- -- 99
2019-08-21 21:00:00 -- 7 Sudeste 15 Sudeste 0 -- -- 98
2019-08-21 20:00:00 -- 3 Oeste 13 Noroeste 0 -- -- 98
2019-08-21 19:00:00 -- 5 Noroeste 14 Noroeste 0 -- -- 98
2019-08-21 18:00:00 -- 4 Noroeste 14 Noroeste 0 -- -- 97
2019-08-21 17:00:00 -- 5 Sudoeste 16 Sudoeste 0 -- -- 97
2019-08-21 16:00:00 -- 6 Sudoeste 17 Sudoeste 0 -- -- 97
2019-08-21 15:00:00 -- 5 Oeste 21 Oeste 0 -- -- 97
2019-08-21 14:00:00 -- 8 Sudoeste 21 Sudoeste 0 -- -- 97
2019-08-21 13:00:00 -- 5 Sudoeste 17 Sudoeste 0 -- -- 97
2019-08-21 12:00:00 -- 3 Oeste 15 Sudoeste 0 -- -- 98
2019-08-21 11:00:00 -- 4 Oeste 15 Oeste 0 -- -- 61
2019-08-21 10:00:00 -- 3 Oeste 9 Sudoeste 0 -- -- 60
2019-08-21 09:00:00 -- 2 Sur 5 Sudeste 0 -- -- 63
2019-08-21 08:00:00 -- 0 Calma 4 Sudeste 0 -- -- 65
2019-08-21 07:00:00 -- 0 Calma 6 Sudeste 0 -- -- 66
2019-08-21 06:00:00 -- 3 Sudeste 5 Sudeste 0 -- -- 66
2019-08-21 05:00:00 -- 2 Sudeste 6 Sudeste 0 -- -- 66
2019-08-21 04:00:00 -- 3 Sudeste 5 Sudeste 0 -- -- 66
2019-08-21 03:00:00 -- 3 Sudeste 7 Sudeste 0 -- -- 66
2019-08-21 02:00:00 -- 3 Sudeste 7 Sudeste 0 -- -- 66
2019-08-21 01:00:00 -- 2 Sudeste 7 Sudeste 0 -- -- 66
2019-08-21 00:00:00 -- 0 Calma 6 Este 0 -- -- 66
2019-08-20 23:00:00 -- 0 Calma 8 Sudoeste 0 -- -- 65
2019-08-20 22:00:00 -- 2 Sudoeste 9 Oeste 0 -- -- 65
2019-08-20 21:00:00 -- 0 Calma 9 Sudoeste 0 -- -- 64
2019-08-20 20:00:00 -- 4 Oeste 12 Noroeste 0 -- -- 63
2019-08-20 19:00:00 -- 3 Oeste 16 Oeste 0 -- -- 59
2019-08-20 18:00:00 -- 4 Sudoeste 12 Sudoeste 0 -- -- 58
2019-08-20 17:00:00 -- 4 Oeste 10 Sudoeste 0 -- -- 54
2019-08-20 16:00:00 -- 5 Noroeste 14 Noroeste 0.1 -- -- 58
2019-08-20 15:00:00 -- 0 Calma 12 Nordeste 0.4 -- -- 67
2019-08-20 14:00:00 -- 4 Nordeste 21 Nordeste 1.4 -- -- 71
2019-08-20 13:00:00 -- 5 Nordeste 10 Nordeste 1.1 -- -- 71
2019-08-20 12:00:00 -- 4 Sur 12 Sur 2 -- -- 70
2019-08-20 11:00:00 -- 4 Noroeste 21 Oeste 2.8 -- -- 65
2019-08-20 10:00:00 -- 3 Este 21 Noroeste 0.6 -- -- 60
2019-08-20 09:00:00 -- 7 Noroeste 13 Noroeste 0.7 -- -- 88
2019-08-20 08:00:00 -- 4 Oeste 16 Sudoeste 0 -- -- 99
2019-08-20 07:00:00 -- 4 Sur 26 Este 0 -- -- 99
2019-08-20 06:00:00 -- 15 Sudeste 37 Sudeste 0 -- -- 99
2019-08-20 05:00:00 -- 20 Sudeste 38 Sudeste 0 -- -- 99
2019-08-20 04:00:00 -- 15 Sudeste 33 Este 0 -- -- 99
2019-08-20 03:00:00 -- 4 Este 15 Este 0 -- -- 99
2019-08-20 02:00:00 -- 5 Sudeste 15 Este 0 -- -- 99
2019-08-20 01:00:00 -- 6 Este 15 Este 0 -- -- 99
2019-08-20 00:00:00 -- 8 Este 14 Este 0 -- -- 99
2019-08-19 23:00:00 -- 10 Sudeste 21 Sudeste 0 -- -- 98
2019-08-19 22:00:00 -- 12 Sudeste 26 Sudeste 0 -- -- 98
2019-08-19 21:00:00 -- 9 Sudeste 24 Sudeste 0 -- -- 98
2019-08-19 20:00:00 -- 8 Sur 22 Sudeste 0 -- -- 98
2019-08-19 19:00:00 -- 9 Sur 26 Sudeste 0 -- -- 98
2019-08-19 18:00:00 -- 6 Sur 23 Sudoeste 0 -- -- 97
2019-08-19 17:00:00 -- 6 Sudeste 16 Sudoeste 0 -- -- 97
2019-08-19 16:00:00 -- 3 Oeste 15 Noroeste 0 -- -- 97
2019-08-19 15:00:00 -- 6 Noroeste 16 Noroeste 0 -- -- 97
2019-08-19 14:00:00 -- 5 Noroeste 16 Noroeste 0 -- -- 81
2019-08-19 13:00:00 -- 3 Sudoeste 14 Noroeste 0 -- -- 97
2019-08-19 12:00:00 -- 5 Noroeste 13 Noroeste 0 -- -- 84
2019-08-19 11:00:00 -- 3 Noroeste 12 Noroeste 0 -- -- 85
2019-08-19 10:00:00 -- 3 Oeste 14 Noroeste 0 -- -- 86
2019-08-19 09:00:00 -- 5 Noroeste 16 Oeste 0 -- -- 88
2019-08-19 08:00:00 -- 3 Noroeste 8 Oeste 0 -- -- 99
2019-08-19 07:00:00 -- 4 Noroeste 12 Noroeste 0 -- -- 99
2019-08-19 06:00:00 -- 0 Calma 5 Sudeste 0 -- -- 99
2019-08-19 05:00:00 -- 2 Sur 13 Este 0 -- -- 99
2019-08-19 04:00:00 -- 6 Sudeste 15 Sudeste 0 -- -- 99
2019-08-19 03:00:00 -- 6 Sudeste 21 Sudeste 0 -- -- 99
2019-08-19 02:00:00 -- 9 Este 19 Este 0 -- -- 99
2019-08-19 01:00:00 -- 8 Sudeste 24 Este 0 -- -- 98
2019-08-19 00:00:00 -- 4 Este 23 Sudeste 0 -- -- 98
2019-08-18 23:00:00 -- 6 Este 15 Sudeste 0 -- -- 98
2019-08-18 22:00:00 -- 6 Sudeste 26 Sudeste 0 -- -- 98
2019-08-18 21:00:00 -- 12 Sudeste 33 Sudeste 0 -- -- 98
2019-08-18 20:00:00 -- 15 Sudeste 33 Sudeste 0 -- -- 98
2019-08-18 19:00:00 -- 13 Sudeste 30 Sudeste 0 -- -- 97
2019-08-18 18:00:00 -- 12 Sudeste 30 Sudeste 0 -- -- 97
2019-08-18 17:00:00 -- 9 Sudeste 22 Sudeste 0 -- -- 96
2019-08-18 16:00:00 -- 4 Sudoeste 17 Sur 0 -- -- 96
2019-08-18 15:00:00 -- 3 Sur 15 Sudeste 0 -- -- 97
2019-08-18 14:00:00 -- 5 Sudeste 18 Sudeste 0 -- -- 97
2019-08-18 13:00:00 -- 4 Sudoeste 14 Sudeste 0 -- -- 96
2019-08-18 12:00:00 -- 4 Sur 15 Sudeste 0 -- -- 97
2019-08-18 11:00:00 -- 4 Este 20 Sudeste 0 -- -- 97
2019-08-18 10:00:00 -- 9 Sudeste 20 Sudeste 0 -- -- 97
2019-08-18 09:00:00 -- 9 Sudeste 22 Sudeste 0 -- -- 98
2019-08-18 08:00:00 -- 5 Este 21 Sudeste 0 -- -- 99
2019-08-18 07:00:00 -- 10 Sudeste 27 Sudeste 0 -- -- 99
2019-08-18 06:00:00 -- 13 Sudeste 24 Sudeste 0 -- -- 99
2019-08-18 05:00:00 -- 3 Nordeste 13 Este 0 -- -- 99
2019-08-18 04:00:00 -- 5 Sudeste 15 Sudeste 0 -- -- 99
2019-08-18 03:00:00 -- 6 Este 14 Sudeste 0 -- -- 99
2019-08-18 02:00:00 -- 8 Sudeste 15 Este 0 -- -- 99
2019-08-18 01:00:00 -- 5 Sudeste 12 Este 0 -- -- 99
2019-08-18 00:00:00 -- 6 Este 25 Este 0 -- -- 98
2019-08-17 23:00:00 -- 13 Sudeste 25 Sudeste 0 -- -- 98
2019-08-17 22:00:00 -- 10 Sudeste 29 Sudeste 0 -- -- 98
2019-08-17 21:00:00 -- 13 Sudeste 33 Sudeste 0 -- -- 98
2019-08-17 20:00:00 -- 13 Sudeste 37 Sudeste 0 -- -- 98
2019-08-17 19:00:00 -- 13 Sudeste 33 Sudeste 0 -- -- 97
2019-08-17 18:00:00 -- 14 Sudeste 33 Sudeste 0 -- -- 97
2019-08-17 17:00:00 -- 13 Sudeste 30 Sudeste 0 -- -- 97
2019-08-17 16:00:00 -- 7 Sur 21 Sur 0 -- -- 97
2019-08-17 15:00:00 -- 2 Sudeste 19 Este 0 -- -- 97
2019-08-17 14:00:00 -- 8 Este 22 Sudeste 0 -- -- 97
2019-08-17 13:00:00 -- 5 Sudoeste 15 Sur 0 -- -- 97
2019-08-17 12:00:00 -- 4 Sudeste 14 Sudoeste 0 -- -- 96
2019-08-17 11:00:00 -- 0 Calma 10 Sudeste 0 -- -- 97
2019-08-17 10:00:00 -- 4 Sudoeste 12 Sudoeste 0 -- -- 97
2019-08-17 09:00:00 -- 4 Sudeste 10 Sudeste 0 -- -- 99
2019-08-17 08:00:00 -- 5 Sudeste 11 Este 0 -- -- 99
2019-08-17 07:00:00 -- 4 Sudeste 17 Este 0 -- -- 99
2019-08-17 06:00:00 -- 5 Este 13 Sudeste 0 -- -- 99
2019-08-17 05:00:00 -- 7 Este 14 Este 0 -- -- 99
2019-08-17 04:00:00 -- 5 Este 15 Sudeste 0 -- -- 99
2019-08-17 03:00:00 -- 2 Este 7 Sudeste 0 -- -- 99
2019-08-17 02:00:00 -- 0 Calma 8 Noroeste 0 -- -- 99
2019-08-17 01:00:00 -- 3 Noroeste 21 Sudeste 0 -- -- 99
2019-08-17 00:00:00 -- 10 Sudeste 18 Sudeste 0 -- -- 99
2019-08-16 23:00:00 -- 10 Sudeste 19 Sudeste 0 -- -- 99
2019-08-16 22:00:00 -- 9 Sudeste 22 Sudeste 0 -- -- 98
2019-08-16 21:00:00 -- 10 Sudeste 23 Sudeste 0 -- -- 98
2019-08-16 20:00:00 -- 8 Sudeste 18 Sudeste 0 -- -- 98
2019-08-16 19:00:00 -- 4 Sur 16 Oeste 0 -- -- 97
2019-08-16 18:00:00 -- 4 Oeste 19 Sudoeste 0 -- -- 85
2019-08-16 17:00:00 -- 4 Oeste 19 Sudoeste 0 -- -- 84
2019-08-16 16:00:00 -- 6 Oeste 18 Sudoeste 0 -- -- 85
2019-08-16 15:00:00 -- 5 Oeste 18 Noroeste 0 -- -- 85
2019-08-16 14:00:00 -- 5 Noroeste 19 Noroeste 0 -- -- 85
2019-08-16 13:00:00 -- 4 Noroeste 15 Sudoeste 0 -- -- 84
2019-08-16 12:00:00 -- 3 Nordeste 12 Noroeste 0 -- -- 84
2019-08-16 11:00:00 -- 4 Noroeste 13 Noroeste 0 -- -- 84
2019-08-16 10:00:00 -- 7 Noroeste 12 Noroeste 0 -- -- 86
2019-08-16 09:00:00 -- 0 Calma 8 Noroeste 0 -- -- 91
2019-08-16 08:00:00 -- 0 Calma 3 Nordeste 0 -- -- 92
2019-08-16 07:00:00 47.2 2 Sudeste 5 Sudeste 0 -- -- 92
2019-08-16 06:00:00 -- 3 Sudoeste 10 Sudoeste 0 -- -- 92
2019-08-16 05:00:00 -- 0 Calma 5 Noroeste 0 -- -- 92
2019-08-16 04:00:00 39.6 0 Calma 6 Sudeste 0 -- -- 92
2019-08-16 03:00:00 -- 2 Sur 13 Sudeste 0 -- -- 92
2019-08-16 02:00:00 45.8 2 Oeste 20 Sudeste 0 -- -- 92
2019-08-16 01:00:00 -- 9 Sudeste 17 Este 0 -- -- 91
2019-08-16 00:00:00 -- 7 Sudeste 23 Sudeste 0 -- -- 92
2019-08-15 23:00:00 -- 11 Sudeste 26 Sudeste 0 -- -- 92
2019-08-15 22:00:00 -- 12 Sudeste 26 Sudeste 0 -- -- 91
2019-08-15 21:00:00 -- 12 Sudeste 25 Sudeste 0 -- -- 91
2019-08-15 20:00:00 -- 9 Sudeste 22 Sudeste 0 -- -- 89
2019-08-15 19:00:00 -- 4 Oeste 20 Noroeste 0 -- -- 88
2019-08-15 18:00:00 -- 6 Sudoeste 19 Sudoeste 0 -- -- 87
2019-08-15 17:00:00 -- 6 Oeste 26 Oeste 0 -- -- 85
2019-08-15 16:00:00 -- 6 Sudoeste 26 Oeste 0 -- -- 85
2019-08-15 15:00:00 -- 5 Oeste 23 Oeste 0 -- -- 86
2019-08-15 14:00:00 -- 6 Oeste 22 Sudoeste 0 -- -- 86
2019-08-15 13:00:00 -- 5 Sudoeste 17 Sudoeste 0 -- -- 86
2019-08-15 12:00:00 -- 5 Sudoeste 14 Sudoeste 0 -- -- 89
2019-08-15 11:00:00 41.4 5 Sudoeste 14 Oeste 0 -- -- 90
2019-08-15 10:00:00 43.6 5 Oeste 16 Oeste 0 -- -- 90
2019-08-15 09:00:00 33.6 5 Sudoeste 13 Oeste 0 -- -- 93
2019-08-15 08:00:00 14.9 0 Calma 6 Sudeste 0 -- -- 95
2019-08-15 07:00:00 11.4 0 Calma 6 Noroeste 0 -- -- 94
2019-08-15 06:00:00 11.3 0 Calma 8 Sudeste 0 -- -- 95
2019-08-15 05:00:00 15.9 5 Sudeste 10 Sudeste 0 -- -- 95
2019-08-15 04:00:00 9.7 6 Sudeste 14 Este 0 -- -- 95
2019-08-15 03:00:00 12.5 8 Sudeste 14 Este 0 -- -- 95
2019-08-15 02:00:00 11.8 4 Este 10 Este 0 -- -- 94
2019-08-15 01:00:00 13.6 3 Nordeste 12 Este 0 -- -- 95
2019-08-15 00:00:00 16.9 5 Sudeste 22 Sudeste 0 -- -- 95
2019-08-14 23:00:00 -- 9 Sudeste 25 Sudeste 0 -- -- 94
2019-08-14 22:00:00 -- 12 Sudeste 25 Sudeste 0 -- -- 93
2019-08-14 21:00:00 22.9 8 Sudeste 26 Sudeste 0 -- -- 94
2019-08-14 20:00:00 30.8 5 Sudoeste 17 Sudoeste 0 -- -- 93
2019-08-14 19:00:00 43.5 6 Sudoeste 24 Sudoeste 0 -- -- 92
2019-08-14 18:00:00 39.4 9 Sudoeste 22 Sudoeste 0 -- -- 90
2019-08-14 17:00:00 -- 9 Sudoeste 27 Sudoeste 0 -- -- 90
2019-08-14 16:00:00 41.9 6 Oeste 22 Sudoeste 0 -- -- 91
2019-08-14 15:00:00 -- 6 Oeste 24 Sudoeste 0 -- -- 91
2019-08-14 14:00:00 -- 7 Sudoeste 25 Sudoeste 0 -- -- 91
2019-08-14 13:00:00 37.2 6 Sudoeste 23 Sudoeste 0 -- -- 90
2019-08-14 12:00:00 -- 6 Sudoeste 17 Sudoeste 0 -- -- 90
2019-08-14 11:00:00 28.2 6 Sudoeste 21 Sudoeste 0 -- -- 91
2019-08-14 10:00:00 18.9 7 Sudoeste 20 Sudoeste 0 -- -- 92
2019-08-14 09:00:00 15.6 3 Sudoeste 8 Sudoeste 0 -- -- 95
2019-08-14 08:00:00 6 0 Calma 6 Sudeste 0 -- -- 96
2019-08-14 07:00:00 8 3 Sudeste 8 Sudeste 0 -- -- 96
2019-08-14 06:00:00 5.1 3 Sudeste 5 Sudeste 0 -- -- 96
2019-08-14 05:00:00 1.5 0 Calma 5 Sudeste 0 -- -- 96
2019-08-14 04:00:00 4.1 0 Calma 6 Sudeste 0 -- -- 96
2019-08-14 03:00:00 6.9 0 Calma 5 Sudeste 0 -- -- 96
2019-08-14 02:00:00 12.3 0 Calma 4 Sudeste 0 -- -- 96
2019-08-14 01:00:00 10.7 0 Calma 5 Sudeste 0 -- -- 95
2019-08-14 00:00:00 12.9 3 Sudeste 7 Sudeste 0 -- -- 95
2019-08-13 23:00:00 17.2 3 Sudeste 6 Sudoeste 0 -- -- 95
2019-08-13 22:00:00 22.4 2 Sur 7 Sudoeste 0 -- -- 94
2019-08-13 21:00:00 39.2 3 Sudoeste 14 Sudoeste 0 -- -- 95
2019-08-13 20:00:00 -- 6 Sudoeste 19 Sudoeste 0 -- -- 93
2019-08-13 19:00:00 -- 5 Oeste 24 Oeste 0 -- -- 92
2019-08-13 18:00:00 45.5 9 Oeste 26 Oeste 0 -- -- 89
2019-08-13 17:00:00 -- 5 Sudoeste 23 Oeste 0 -- -- 91
2019-08-13 16:00:00 -- 6 Oeste 24 Oeste 0 -- -- 91
2019-08-13 15:00:00 -- 8 Oeste 28 Oeste 0 -- -- 90
2019-08-13 14:00:00 -- 8 Oeste 27 Oeste 0 -- -- 90
2019-08-13 13:00:00 -- 5 Oeste 22 Sudoeste 0 -- -- 91
2019-08-13 12:00:00 -- 9 Sudoeste 21 Oeste 0 -- -- 91
2019-08-13 11:00:00 40.2 7 Oeste 19 Oeste 0 -- -- 92
2019-08-13 10:00:00 -- 5 Oeste 17 Sudoeste 0 -- -- 94
2019-08-13 09:00:00 23.5 3 Sudoeste 15 Oeste 0 -- -- 95
2019-08-13 08:00:00 18.3 6 Sudoeste 13 Sudoeste 0 -- -- 95
2019-08-13 07:00:00 16.6 3 Sudoeste 12 Sudoeste 0 -- -- 94
2019-08-13 06:00:00 17.3 4 Oeste 13 Oeste 0 -- -- 95
2019-08-13 05:00:00 17.1 4 Sudoeste 13 Sudoeste 0 -- -- 95
2019-08-13 04:00:00 11.1 3 Oeste 15 Oeste 0 -- -- 94
2019-08-13 03:00:00 22 7 Sudoeste 19 Oeste 0 -- -- 94
2019-08-13 02:00:00 28.3 7 Oeste 19 Sudoeste 0 -- -- 94
2019-08-13 01:00:00 25.9 3 Sur 14 Sudoeste 0 -- -- 93
2019-08-13 00:00:00 31.7 4 Sudoeste 24 Sudoeste 0 -- -- 93
2019-08-12 23:00:00 -- 8 Sudoeste 19 Sur 0 -- -- 93
2019-08-12 22:00:00 -- 3 Sudoeste 13 Oeste 0 -- -- 93
2019-08-12 21:00:00 -- 5 Oeste 15 Noroeste 0 -- -- 93
2019-08-12 20:00:00 -- 6 Oeste 22 Noroeste 0 -- -- 90
2019-08-12 19:00:00 -- 7 Noroeste 27 Noroeste 0 -- -- 90
2019-08-12 18:00:00 -- 7 Oeste 25 Oeste 0 -- -- 88
2019-08-12 17:00:00 -- 7 Oeste 29 Noroeste 0 -- -- 86
2019-08-12 16:00:00 -- 8 Oeste 27 Noroeste 0 -- -- 86
2019-08-12 15:00:00 -- 8 Sudoeste 24 Sudoeste 0 -- -- 87
2019-08-12 14:00:00 -- 6 Oeste 25 Sudoeste 0 -- -- 87
2019-08-12 13:00:00 -- 6 Oeste 26 Sudoeste 0 -- -- 87
2019-08-12 12:00:00 -- 9 Oeste 25 Oeste 0 -- -- 87
2019-08-12 11:00:00 -- 6 Oeste 25 Sudoeste 0 -- -- 89
2019-08-12 10:00:00 -- 8 Sudoeste 23 Oeste 0 -- -- 90
2019-08-12 09:00:00 -- 9 Sudoeste 21 Sudoeste 0 -- -- 91
2019-08-12 08:00:00 -- 8 Oeste 20 Sudoeste 0 -- -- 91
2019-08-12 07:00:00 -- 7 Sudoeste 17 Oeste 0 -- -- 90
2019-08-12 06:00:00 -- 5 Oeste 17 Sudoeste 0 -- -- 90
2019-08-12 05:00:00 -- 6 Sudoeste 14 Sudoeste 0 -- -- 89
2019-08-12 04:00:00 -- 7 Sudeste 17 Sudoeste 0 -- -- 89
2019-08-12 03:00:00 -- 4 Oeste 12 Sudoeste 0 -- -- 89
2019-08-12 02:00:00 -- 3 Sudoeste 14 Noroeste 0 -- -- 89
2019-08-12 01:00:00 -- 8 Sudeste 28 Sudeste 0 -- -- 90
2019-08-12 00:00:00 -- 14 Sudeste 26 Sudeste 0 -- -- 88
2019-08-11 23:00:00 -- 3 Este 8 Sudeste 0 -- -- 90
2019-08-11 22:00:00 -- 4 Sudeste 8 Sudeste 0 -- -- 88
2019-08-11 21:00:00 -- 3 Sur 11 Sudoeste 0 -- -- 88
2019-08-11 20:00:00 -- 3 Sur 12 Sudoeste 0 -- -- 88
2019-08-11 19:00:00 -- 5 Sur 15 Sudoeste 0 -- -- 87
2019-08-11 18:00:00 -- 4 Sur 15 Sur 0 -- -- 86
2019-08-11 17:00:00 -- 5 Sudoeste 14 Sudoeste 0 -- -- 87
2019-08-11 16:00:00 -- 4 Oeste 19 Noroeste 0 -- -- 86
2019-08-11 15:00:00 -- 7 Oeste 24 Noroeste 0 -- -- 84
2019-08-11 14:00:00 -- 8 Oeste 22 Oeste 0 -- -- 82
2019-08-11 13:00:00 -- 3 Sur 12 Sudoeste 0 -- -- 85
2019-08-11 12:00:00 -- 5 Sur 15 Sudoeste 0 -- -- 85
2019-08-11 11:00:00 -- 3 Sur 15 Sudeste 0 -- -- 85
2019-08-11 10:00:00 -- 2 Oeste 10 Noroeste 0 -- -- 88
2019-08-11 09:00:00 -- 4 Sudoeste 9 Noroeste 0 -- -- 91
2019-08-11 08:00:00 -- 0 Calma 5 Nordeste 0 -- -- 92
2019-08-11 07:00:00 -- 0 Calma 12 Norte 0 -- -- 92
2019-08-11 06:00:00 -- 4 Noroeste 10 Noroeste 0 -- -- 91
2019-08-11 05:00:00 -- 5 Nordeste 10 Nordeste 0 -- -- 92
2019-08-11 04:00:00 -- 0 Calma 10 Nordeste 0 -- -- 92
2019-08-11 03:00:00 -- 3 Sudeste 12 Norte 0 -- -- 92
2019-08-11 02:00:00 -- 4 Noroeste 18 Este 0 -- -- 91
2019-08-11 01:00:00 -- 4 Nordeste 17 Sudeste 0 -- -- 93
2019-08-11 00:00:00 -- 5 Sudeste 14 Sudeste 0 -- -- 92
2019-08-10 23:00:00 -- 6 Este 15 Este 0 -- -- 92
2019-08-10 22:00:00 -- 6 Sudeste 14 Sudeste 0 -- -- 92
2019-08-10 21:00:00 -- 8 Sudeste 19 Sudeste 0 -- -- 91
2019-08-10 20:00:00 -- 6 Sur 15 Sur 0 -- -- 90
2019-08-10 19:00:00 -- 6 Noroeste 14 Noroeste 0 -- -- 88
2019-08-10 18:00:00 -- 5 Noroeste 15 Noroeste 0 -- -- 87
2019-08-10 17:00:00 -- 5 Noroeste 22 Noroeste 0 -- -- 86
2019-08-10 16:00:00 -- 8 Noroeste 23 Noroeste 0 -- -- 85
2019-08-10 15:00:00 -- 5 Oeste 22 Noroeste 0 -- -- 85
2019-08-10 14:00:00 -- 6 Oeste 18 Sudoeste 0 -- -- 86
2019-08-10 13:00:00 -- 5 Oeste 19 Sudoeste 0 -- -- 85
2019-08-10 12:00:00 -- 9 Sudoeste 24 Sudoeste 0 -- -- 85
2019-08-10 11:00:00 -- 5 Sudoeste 19 Oeste 0 -- -- 85
2019-08-10 10:00:00 -- 6 Sudoeste 21 Sudoeste 0 -- -- 89
2019-08-10 09:00:00 -- 6 Sudoeste 17 Oeste 0 -- -- 91
2019-08-10 08:00:00 -- 3 Sur 10 Oeste 0 -- -- 93
2019-08-10 07:00:00 -- 4 Sudoeste 11 Sudoeste 0 -- -- 93
2019-08-10 06:00:00 46.1 3 Noroeste 8 Oeste 0 -- -- 92
2019-08-10 05:00:00 -- 4 Noroeste 11 Sudoeste 0 -- -- 92
2019-08-10 04:00:00 -- 3 Oeste 13 Sudoeste 0 -- -- 92
2019-08-10 03:00:00 -- 6 Sudoeste 16 Sudoeste 0 -- -- 92
2019-08-10 02:00:00 -- 5 Sudoeste 29 Sudoeste 0 -- -- 92
2019-08-10 01:00:00 -- 10 Sudoeste 27 Sudoeste 0 -- -- 90
2019-08-10 00:00:00 -- 5 Sudeste 15 Sudeste 0 -- -- 91
2019-08-09 23:00:00 -- 7 Sudeste 17 Sudeste 0 -- -- 91
2019-08-09 22:00:00 -- 6 Sur 20 Sur 0 -- -- 91
2019-08-09 21:00:00 -- 9 Sudeste 26 Sudeste 0 -- -- 89
2019-08-09 20:00:00 -- 8 Sur 19 Sur 0 -- -- 88
2019-08-09 19:00:00 -- 9 Noroeste 22 Noroeste 0 -- -- 84
2019-08-09 18:00:00 -- 12 Noroeste 22 Noroeste 0 -- -- 83
2019-08-09 17:00:00 -- 9 Noroeste 28 Oeste 0 -- -- 82
2019-08-09 16:00:00 -- 10 Oeste 26 Noroeste 0 -- -- 82
2019-08-09 15:00:00 -- 7 Oeste 21 Oeste 0 -- -- 80
2019-08-09 14:00:00 -- 7 Noroeste 21 Noroeste 0 -- -- 80
2019-08-09 13:00:00 -- 5 Sudoeste 17 Oeste 0 -- -- 79
2019-08-09 12:00:00 -- 4 Sudoeste 15 Sur 0 -- -- 76
2019-08-09 11:00:00 -- 4 Sudoeste 12 Sudoeste 0 -- -- 79
2019-08-09 10:00:00 -- 3 Oeste 9 Sudoeste 0 -- -- 84
2019-08-09 09:00:00 -- 5 Noroeste 9 Noroeste 0 -- -- 90
2019-08-09 08:00:00 -- 5 Sudeste 10 Sudeste 0 -- -- 90
2019-08-09 07:00:00 -- 3 Sudeste 9 Sudeste 0 -- -- 90
2019-08-09 06:00:00 -- 4 Sudeste 10 Este 0 -- -- 90
2019-08-09 05:00:00 -- 4 Sudeste 10 Este 0 -- -- 91
2019-08-09 04:00:00 -- 2 Sudeste 9 Sudeste 0 -- -- 90
2019-08-09 03:00:00 -- 3 Sudeste 8 Norte 0 -- -- 89
2019-08-09 02:00:00 -- 3 Nordeste 15 Nordeste 0 -- -- 88
2019-08-09 01:00:00 -- 3 Sur 18 Sudeste 0 -- -- 89
2019-08-09 00:00:00 -- 9 Sudeste 22 Sur 0 -- -- 87
2019-08-08 23:00:00 -- 9 Sudeste 21 Sudeste 0 -- -- 87
2019-08-08 22:00:00 -- 9 Sudeste 24 Sudeste 0 -- -- 87
2019-08-08 21:00:00 -- 8 Sudeste 26 Sudeste 0 -- -- 87
2019-08-08 20:00:00 -- 6 Sur 20 Noroeste 0 -- -- 85
2019-08-08 19:00:00 -- 4 Oeste 18 Noroeste 0 -- -- 82
2019-08-08 18:00:00 -- 7 Oeste 21 Noroeste 0 -- -- 80
2019-08-08 17:00:00 -- 7 Oeste 19 Sudoeste 0 -- -- 79
2019-08-08 16:00:00 -- 7 Oeste 21 Sudoeste 0 -- -- 82
2019-08-08 15:00:00 -- 5 Sudoeste 21 Oeste 0 -- -- 81
2019-08-08 14:00:00 -- 7 Oeste 23 Sudoeste 0 -- -- 82
2019-08-08 13:00:00 -- 6 Oeste 23 Oeste 0 -- -- 81
2019-08-08 12:00:00 -- 7 Sudoeste 23 Sudoeste 0 -- -- 79
2019-08-08 11:00:00 -- 5 Sudoeste 17 Oeste 0 -- -- 79
2019-08-08 10:00:00 -- 6 Sudoeste 16 Sudoeste 0 -- -- 83
2019-08-08 09:00:00 -- 0 Calma 5 Oeste 0 -- -- 89
2019-08-08 08:00:00 -- 0 Calma 4 Sudeste 0 -- -- 91
2019-08-08 07:00:00 -- 2 Sudeste 8 Sudeste 0 -- -- 88
2019-08-08 06:00:00 -- 4 Sudeste 8 Sudeste 0 -- -- 88
2019-08-08 05:00:00 -- 3 Sudeste 9 Sudeste 0 -- -- 88
2019-08-08 04:00:00 -- 2 Sudeste 6 Sudeste 0 -- -- 89
2019-08-08 03:00:00 -- 0 Calma 6 Sudeste 0 -- -- 88
2019-08-08 02:00:00 -- 2 Noroeste 7 Este 0.1 -- -- 88
2019-08-08 01:00:00 -- 4 Sudeste 16 Sudeste 0 -- -- 88
2019-08-08 00:00:00 -- 6 Sudeste 19 Sudeste 0 -- -- 88
2019-08-07 23:00:00 -- 6 Sudeste 12 Sudeste 0 -- -- 87
2019-08-07 22:00:00 -- 4 Sudeste 13 Sudeste 0 -- -- 87
2019-08-07 21:00:00 -- 3 Sur 12 Sudoeste 0 -- -- 87
2019-08-07 20:00:00 -- 6 Noroeste 15 Sudoeste 0 -- -- 86
2019-08-07 19:00:00 -- 6 Oeste 20 Oeste 0 -- -- 84
2019-08-07 18:00:00 -- 9 Noroeste 21 Oeste 0 -- -- 85
2019-08-07 17:00:00 -- 6 Oeste 20 Sudoeste 0 -- -- 83
2019-08-07 16:00:00 -- 7 Sudoeste 20 Oeste 0 -- -- 82
2019-08-07 15:00:00 -- 8 Oeste 22 Noroeste 0 -- -- 80
2019-08-07 14:00:00 -- 6 Oeste 20 Noroeste 0 -- -- 81
2019-08-07 13:00:00 -- 0 Calma 13 Oeste 0 -- -- 79
2019-08-07 12:00:00 -- 3 Sudeste 13 Noroeste 0 -- -- 81
2019-08-07 11:00:00 -- 5 Sudoeste 14 Sudoeste 0 -- -- 83
2019-08-07 10:00:00 -- 4 Oeste 11 Sudoeste 0 -- -- 86
2019-08-07 09:00:00 -- 0 Calma 7 Nordeste 0 -- -- 89
2019-08-07 08:00:00 -- 4 Este 15 Sudeste 0 -- -- 91
2019-08-07 07:00:00 -- 6 Sudeste 17 Sudeste 0 -- -- 90
2019-08-07 06:00:00 -- 5 Sudeste 18 Este 0 -- -- 90
2019-08-07 05:00:00 -- 8 Este 19 Este 0 -- -- 90
2019-08-07 04:00:00 -- 3 Sudeste 24 Este 0 -- -- 90
2019-08-07 03:00:00 -- 6 Norte 23 Sudeste 0 -- -- 89
2019-08-07 02:00:00 -- 3 Este 23 Sudeste 0 -- -- 89
2019-08-07 01:00:00 -- 7 Sudeste 14 Este 0 -- -- 90
2019-08-07 00:00:00 -- 8 Este 18 Sudeste 0 -- -- 90
2019-08-06 23:00:00 -- 6 Este 13 Este 0 -- -- 91
2019-08-06 22:00:00 -- 5 Este 17 Sudeste 0 -- -- 90
2019-08-06 21:00:00 -- 7 Sudeste 18 Sur 0 -- -- 89
2019-08-06 20:00:00 -- 6 Sudeste 17 Sudeste 0 -- -- 88
2019-08-06 19:00:00 -- 4 Sudoeste 15 Oeste 0 -- -- 86
2019-08-06 18:00:00 -- 4 Oeste 19 Oeste 0 -- -- 85
2019-08-06 17:00:00 -- 4 Sudoeste 18 Noroeste 0 -- -- 81
2019-08-06 16:00:00 -- 3 Oeste 17 Sudeste 0 -- -- 82
2019-08-06 15:00:00 -- 2 Oeste 16 Noroeste 0 -- -- 82
2019-08-06 14:00:00 -- 4 Oeste 18 Oeste 0 -- -- 83
2019-08-06 13:00:00 -- 5 Sur 17 Sudoeste 0 -- -- 83
2019-08-06 12:00:00 -- 4 Sudoeste 12 Sudoeste 0 -- -- 83
2019-08-06 11:00:00 -- 4 Sudoeste 12 Sudoeste 0 -- -- 84
2019-08-06 10:00:00 -- 4 Sudoeste 9 Sudoeste 0 -- -- 89
2019-08-06 09:00:00 -- 0 Calma 8 Oeste 0 -- -- 93
2019-08-06 08:00:00 -- 0 Calma 16 Sudeste 0 -- -- 93
2019-08-06 07:00:00 -- 9 Este 17 Este 0 -- -- 92
2019-08-06 06:00:00 47.1 7 Este 21 Este 0 -- -- 92
2019-08-06 05:00:00 44.6 11 Este 20 Este 0 -- -- 91
2019-08-06 04:00:00 -- 9 Este 23 Este 0 -- -- 92
2019-08-06 03:00:00 -- 10 Este 20 Este 0 -- -- 91
2019-08-06 02:00:00 -- 3 Este 17 Nordeste 0 -- -- 92
2019-08-06 01:00:00 -- 3 Este 17 Este 0 -- -- 91
2019-08-06 00:00:00 -- 7 Este 22 Este 0 -- -- 90
2019-08-05 23:00:00 -- 7 Sudeste 22 Sudeste 0 -- -- 91
2019-08-05 22:00:00 -- 5 Sudeste 21 Sudeste 0 -- -- 90
2019-08-05 21:00:00 -- 12 Sudeste 29 Sudeste 0 -- -- 90
2019-08-05 20:00:00 -- 13 Sudeste 37 Sudeste 0 -- -- 89
2019-08-05 19:00:00 -- 15 Sudeste 36 Sudeste 0 -- -- 86
2019-08-05 18:00:00 -- 11 Sudeste 27 Sudeste 0 -- -- 86
2019-08-05 17:00:00 -- 14 Sudeste 26 Sudeste 0 -- -- 83
2019-08-05 16:00:00 -- 7 Sudeste 23 Sudeste 0 -- -- 83
2019-08-05 15:00:00 -- 7 Sudeste 23 Sudeste 0 -- -- 82
2019-08-05 14:00:00 -- 4 Sur 20 Oeste 0 -- -- 82
2019-08-05 13:00:00 -- 2 Norte 12 Noroeste 0 -- -- 82
2019-08-05 12:00:00 -- 4 Noroeste 11 Sudoeste 0 -- -- 81
2019-08-05 11:00:00 -- 3 Sudoeste 9 Sudoeste 0 -- -- 84
2019-08-05 10:00:00 -- 4 Sudoeste 10 Sudoeste 0 -- -- 87
2019-08-05 09:00:00 -- 2 Sur 6 Sudoeste 0 -- -- 92
2019-08-05 08:00:00 -- 3 Sudeste 12 Sudeste 0 -- -- 92
2019-08-05 07:00:00 -- 5 Sudeste 9 Sudeste 0 -- -- 91
2019-08-05 06:00:00 -- 6 Sudeste 17 Sudeste 0 -- -- 91
2019-08-05 05:00:00 -- 7 Sudeste 13 Sudeste 0 -- -- 91
2019-08-05 04:00:00 -- 4 Sudeste 8 Sudeste 0 -- -- 91
2019-08-05 03:00:00 -- 0 Calma 8 Sudeste 0 -- -- 91
2019-08-05 02:00:00 -- 4 Sudeste 8 Sudeste 0 -- -- 90
2019-08-05 01:00:00 -- 2 Sudeste 11 Sudoeste 0 -- -- 90
2019-08-05 00:00:00 -- 0 Calma 11 Sudeste 0 -- -- 90
2019-08-04 23:00:00 -- 9 Sudeste 19 Este 0 -- -- 89
2019-08-04 22:00:00 -- 13 Sudeste 24 Sudeste 0 -- -- 88
2019-08-04 21:00:00 -- 11 Sudeste 27 Sudeste 0 -- -- 89
2019-08-04 20:00:00 -- 10 Sudeste 33 Sudeste 0 -- -- 88
2019-08-04 19:00:00 -- 14 Sudeste 36 Sudeste 0 -- -- 87
2019-08-04 18:00:00 -- 13 Sudeste 33 Sur 0 -- -- 85
2019-08-04 17:00:00 -- 14 Sudeste 36 Sudeste 0 -- -- 83
2019-08-04 16:00:00 -- 7 Sur 26 Sudeste 0 -- -- 81
2019-08-04 15:00:00 -- 6 Sur 19 Sudoeste 0 -- -- 80
2019-08-04 14:00:00 -- 5 Sudoeste 14 Sudoeste 0 -- -- 80
2019-08-04 13:00:00 -- 2 Nordeste 10 Oeste 0 -- -- 78
2019-08-04 12:00:00 -- 2 Noroeste 10 Sudoeste 0 -- -- 78
2019-08-04 11:00:00 -- 2 Oeste 8 Noroeste 0 -- -- 82
2019-08-04 10:00:00 -- 3 Noroeste 7 Noroeste 0 -- -- 87
2019-08-04 09:00:00 -- 4 Norte 7 Norte 0 -- -- 91
2019-08-04 08:00:00 46.5 0 Calma 9 Nordeste 0 -- -- 92
2019-08-04 07:00:00 43.4 3 Norte 5 Nordeste 0 -- -- 92
2019-08-04 06:00:00 46.4 0 Calma 8 Sudeste 0 -- -- 92
2019-08-04 05:00:00 47.6 3 Nordeste 10 Este 0 -- -- 92
2019-08-04 04:00:00 39.6 4 Sudeste 13 Sudeste 0 -- -- 91
2019-08-04 03:00:00 -- 3 Sur 16 Sudeste 0 -- -- 92
2019-08-04 02:00:00 44.1 7 Sudeste 16 Sudeste 0 -- -- 90
2019-08-04 01:00:00 46.5 8 Sudeste 16 Sudeste 0 -- -- 91
2019-08-04 00:00:00 48 5 Sudeste 12 Nordeste 0 -- -- 91
2019-08-03 23:00:00 -- 9 Sudeste 28 Sur 0 -- -- 90
2019-08-03 22:00:00 -- 10 Sudeste 30 Sudeste 0 -- -- 88
2019-08-03 21:00:00 -- 12 Sudeste 27 Sudeste 0 -- -- 88
2019-08-03 20:00:00 -- 9 Sur 32 Sudeste 0 -- -- 88
2019-08-03 19:00:00 -- 12 Sudeste 36 Sudeste 0 -- -- 87
2019-08-03 18:00:00 -- 13 Sudeste 36 Sudeste 0 -- -- 87
2019-08-03 17:00:00 -- 10 Sudeste 35 Sudeste 0 -- -- 86
2019-08-03 16:00:00 -- 12 Sudeste 33 Sudeste 0 -- -- 84
2019-08-03 15:00:00 -- 9 Sudeste 24 Sudeste 0 -- -- 83
2019-08-03 14:00:00 -- 6 Sur 15 Este 0 -- -- 81
2019-08-03 13:00:00 -- 0 Calma 10 Sudoeste 0 -- -- 80
2019-08-03 12:00:00 -- 2 Oeste 9 Oeste 0 -- -- 81
2019-08-03 11:00:00 -- 0 Calma 9 Sudoeste 0 -- -- 83
2019-08-03 10:00:00 -- 0 Calma 6 Sudoeste 0 -- -- 88
2019-08-03 09:00:00 -- 0 Calma 5 Nordeste 0 -- -- 93
2019-08-03 08:00:00 46.5 0 Calma 5 Este 0 -- -- 93
2019-08-03 07:00:00 34.1 0 Calma 4 Oeste 0 -- -- 93
2019-08-03 06:00:00 32 0 Calma 8 Sudeste 0 -- -- 93
2019-08-03 05:00:00 32.9 0 Calma 6 Sur 0 -- -- 92
2019-08-03 04:00:00 38 0 Calma 5 Este 0 -- -- 92
2019-08-03 03:00:00 39.7 3 Sudeste 8 Este 0 -- -- 92
2019-08-03 02:00:00 41.7 3 Este 8 Sudeste 0 -- -- 92
2019-08-03 01:00:00 39.2 3 Sudeste 8 Este 0 -- -- 92
2019-08-03 00:00:00 43.3 2 Este 13 Este 0 -- -- 91
2019-08-02 23:00:00 46.9 6 Nordeste 23 Sur 0 -- -- 91
2019-08-02 22:00:00 -- 14 Sudeste 33 Sudeste 0 -- -- 90
2019-08-02 21:00:00 42.2 9 Sudeste 28 Sudeste 0 -- -- 91
2019-08-02 20:00:00 -- 13 Sudeste 30 Sudeste 0 -- -- 88
2019-08-02 19:00:00 -- 10 Sur 35 Sudeste 0 -- -- 87
2019-08-02 18:00:00 -- 5 Sur 19 Oeste 0 -- -- 86
2019-08-02 17:00:00 -- 6 Oeste 22 Sudoeste 0 -- -- 85
2019-08-02 16:00:00 -- 7 Sudoeste 19 Sudoeste 0 -- -- 85
2019-08-02 15:00:00 -- 6 Oeste 19 Oeste 0 -- -- 85
2019-08-02 14:00:00 -- 6 Sudoeste 19 Sudoeste 0 -- -- 85
2019-08-02 13:00:00 -- 3 Sudoeste 17 Sudoeste 0 -- -- 85
2019-08-02 12:00:00 -- 5 Oeste 19 Noroeste 0 -- -- 86
2019-08-02 11:00:00 -- 5 Sudoeste 14 Oeste 0 -- -- 87
2019-08-02 10:00:00 -- 4 Oeste 15 Noroeste 0 -- -- 90
2019-08-02 09:00:00 -- 4 Noroeste 10 Noroeste 0 -- -- 93
2019-08-02 08:00:00 40.2 0 Calma 6 Sudeste 0 -- -- 93
2019-08-02 07:00:00 28.2 3 Sudeste 9 Sur 0 -- -- 92
2019-08-02 06:00:00 -- 3 Este 8 Sudeste 0 -- -- 92
2019-08-02 05:00:00 29.1 3 Sudeste 11 Sudeste 0 -- -- 92
2019-08-02 04:00:00 33.2 4 Sudeste 14 Este 0 -- -- 91
2019-08-02 03:00:00 40.7 5 Nordeste 15 Este 0 -- -- 91
2019-08-02 02:00:00 41.4 2 Sudeste 6 Este 0 -- -- 92
2019-08-02 01:00:00 44.8 0 Calma 7 Noroeste 0 -- -- 91
2019-08-02 00:00:00 -- 2 Norte 14 Sudeste 0 -- -- 91
2019-08-01 23:00:00 -- 9 Sudeste 24 Sudeste 0 -- -- 90
2019-08-01 22:00:00 -- 7 Sudeste 15 Sudeste 0 -- -- 91
2019-08-01 21:00:00 -- 10 Sudeste 25 Sudeste 0 -- -- 90
2019-08-01 20:00:00 -- 9 Sur 25 Sudeste 0 -- -- 88
2019-08-01 19:00:00 -- 10 Sudeste 31 Sudeste 0 -- -- 87
2019-08-01 18:00:00 -- 9 Sudeste 29 Sudeste 0 -- -- 85
2019-08-01 17:00:00 -- 8 Sur 22 Sudoeste 0 -- -- 83
2019-08-01 16:00:00 -- 6 Sudeste 29 Sudoeste 0 -- -- 82
2019-08-01 15:00:00 -- 5 Sur 20 Sudeste 0 -- -- 82
2019-08-01 14:00:00 -- 6 Sur 22 Sudoeste 0 -- -- 82
2019-08-01 13:00:00 -- 4 Noroeste 17 Noroeste 0 -- -- 82
2019-08-01 12:00:00 -- 5 Noroeste 14 Noroeste 0 -- -- 80
2019-08-01 11:00:00 -- 4 Oeste 12 Sudeste 0 -- -- 82
2019-08-01 10:00:00 -- 4 Sur 10 Sudoeste 0 -- -- 87
2019-08-01 09:00:00 -- 3 Sudoeste 10 Oeste 0 -- -- 90
2019-08-01 08:00:00 -- 2 Este 10 Este 0 -- -- 92
2019-08-01 07:00:00 34.1 3 Este 11 Nordeste 0 -- -- 91
2019-08-01 06:00:00 40.4 4 Nordeste 13 Sudeste 0 -- -- 91
2019-08-01 05:00:00 -- 5 Este 12 Este 0 -- -- 91
2019-08-01 04:00:00 37.9 2 Nordeste 8 Nordeste 0 -- -- 92
2019-08-01 03:00:00 37.3 2 Nordeste 13 Sudeste 0 -- -- 92
2019-08-01 02:00:00 39.5 8 Este 17 Este 0 -- -- 91
2019-08-01 01:00:00 -- 8 Este 19 Este 0 -- -- 90
2019-08-01 00:00:00 -- 2 Este 14 Este 0 -- -- 92
2019-07-31 23:00:00 -- 4 Sudeste 15 Este 0 -- -- 92
2019-07-31 22:00:00 -- 8 Este 24 Sudeste 0 -- -- 92
2019-07-31 21:00:00 -- 10 Sudeste 24 Sudeste 0 -- -- 91
2019-07-31 20:00:00 -- 10 Sudeste 19 Sudeste 0 -- -- 90
2019-07-31 19:00:00 -- 11 Sudeste 23 Sudeste 0 -- -- 88
2019-07-31 18:00:00 -- 6 Sudeste 22 Sudeste 0 -- -- 88
2019-07-31 17:00:00 -- 5 Sur 19 Sur 0 -- -- 85
2019-07-31 16:00:00 -- 5 Sur 18 Sudeste 0 -- -- 85
2019-07-31 15:00:00 -- 6 Sudoeste 18 Norte 0 -- -- 87
2019-07-31 14:00:00 -- 6 Oeste 18 Sudoeste 0 -- -- 87
2019-07-31 13:00:00 -- 4 Sudoeste 12 Sudoeste 0 -- -- 88
2019-07-31 12:00:00 -- 0 Calma 10 Oeste 0 -- -- 88
2019-07-31 11:00:00 -- 0 Calma 12 Oeste 0 -- -- 89
2019-07-31 10:00:00 -- 3 Oeste 12 Sur 0 -- -- 91
2019-07-31 09:00:00 -- 3 Oeste 12 Sudoeste 0 -- -- 92
2019-07-31 08:00:00 24.8 3 Oeste 11 Oeste 0 -- -- 93
2019-07-31 07:00:00 13.8 3 Oeste 10 Noroeste 0 -- -- 92
2019-07-31 06:00:00 18.9 3 Oeste 13 Noroeste 0 -- -- 92
2019-07-31 05:00:00 21.8 4 Oeste 13 Oeste 0 -- -- 92
2019-07-31 04:00:00 22.8 5 Noroeste 19 Sudoeste 0 -- -- 92
2019-07-31 03:00:00 -- 5 Oeste 17 Sudoeste 0 -- -- 90
2019-07-31 02:00:00 33.8 4 Sudoeste 12 Sudoeste 0 -- -- 92
2019-07-31 01:00:00 38 3 Sudoeste 19 Oeste 0 -- -- 91
2019-07-31 00:00:00 43.9 3 Sur 11 Sur 0 -- -- 92
2019-07-30 23:00:00 -- 3 Sur 18 Sudeste 0 -- -- 93
2019-07-30 22:00:00 -- 8 Sudeste 19 Sudeste 0 -- -- 92
2019-07-30 21:00:00 -- 5 Sur 17 Sudeste 0 -- -- 91
2019-07-30 20:00:00 -- 4 Sudoeste 15 Sudoeste 0 -- -- 89
2019-07-30 19:00:00 -- 5 Sudoeste 18 Oeste 0 -- -- 88
2019-07-30 18:00:00 -- 7 Oeste 22 Sudoeste 0 -- -- 87
2019-07-30 17:00:00 -- 6 Oeste 21 Noroeste 0 -- -- 87
2019-07-30 16:00:00 -- 7 Sudoeste 20 Sudoeste 0 -- -- 87
2019-07-30 15:00:00 -- 6 Oeste 22 Oeste 0 -- -- 86
2019-07-30 14:00:00 -- 4 Sudoeste 20 Oeste 0 -- -- 89
2019-07-30 13:00:00 -- 4 Oeste 18 Noroeste 0 -- -- 87
2019-07-30 12:00:00 -- 5 Sudoeste 15 Sudoeste 0 -- -- 87
2019-07-30 11:00:00 -- 6 Sudoeste 19 Oeste 0 -- -- 88
2019-07-30 10:00:00 47.8 7 Sudoeste 17 Oeste 0 -- -- 90
2019-07-30 09:00:00 46.3 4 Sudoeste 13 Sudoeste 0 -- -- 93
2019-07-30 08:00:00 -- 4 Sudoeste 15 Sudoeste 0 -- -- 92
2019-07-30 07:00:00 -- 6 Sudoeste 15 Sudoeste 0 -- -- 92
2019-07-30 06:00:00 33.4 6 Sudoeste 16 Sudoeste 0 -- -- 92
2019-07-30 05:00:00 23.5 0 Calma 12 Este 0 -- -- 92
2019-07-30 04:00:00 27.8 4 Este 19 Este 0 -- -- 92
2019-07-30 03:00:00 -- 10 Este 20 Este 0 -- -- 92
2019-07-30 02:00:00 -- 2 Nordeste 12 Nordeste 0 -- -- 92
2019-07-30 01:00:00 -- 4 Noroeste 24 Sudeste 0 -- -- 92
2019-07-30 00:00:00 -- 12 Sudeste 28 Sudeste 0 -- -- 91
2019-07-29 23:00:00 -- 10 Sudeste 23 Sur 0 -- -- 92
2019-07-29 22:00:00 -- 9 Sudeste 22 Sudeste 0 -- -- 92
2019-07-29 21:00:00 -- 8 Sudeste 22 Sudeste 0 -- -- 91
2019-07-29 20:00:00 -- 5 Sudoeste 16 Sudoeste 0 -- -- 89
2019-07-29 19:00:00 -- 5 Sudoeste 15 Sudoeste 0 -- -- 88
2019-07-29 18:00:00 -- 4 Sudoeste 16 Noroeste 0 -- -- 87
2019-07-29 17:00:00 -- 4 Oeste 23 Sudoeste 0 -- -- 85
2019-07-29 16:00:00 -- 6 Sudoeste 20 Oeste 0 -- -- 86
2019-07-29 15:00:00 -- 6 Sudoeste 18 Sudoeste 0 -- -- 86
2019-07-29 14:00:00 -- 5 Oeste 19 Noroeste 0 -- -- 86
2019-07-29 13:00:00 -- 4 Oeste 16 Sudoeste 0 -- -- 86
2019-07-29 12:00:00 -- 4 Oeste 14 Sudoeste 0 -- -- 84
2019-07-29 11:00:00 -- 4 Sur 11 Sudoeste 0 -- -- 85
2019-07-29 10:00:00 -- 4 Sudoeste 9 Sur 0 -- -- 90
2019-07-29 09:00:00 -- 0 Calma 6 Sudeste 0 -- -- 93
2019-07-29 08:00:00 36.1 3 Sudeste 7 Sur 0 -- -- 93
2019-07-29 07:00:00 23.7 3 Sudeste 8 Sudeste 0 -- -- 93
2019-07-29 06:00:00 33 3 Sudeste 6 Este 0 -- -- 93
2019-07-29 05:00:00 32.6 3 Sudeste 8 Sudeste 0 -- -- 93
2019-07-29 04:00:00 27.4 3 Sudeste 8 Sudeste 0 -- -- 93
2019-07-29 03:00:00 26 3 Sudeste 9 Sudeste 0 -- -- 93
2019-07-29 02:00:00 34 3 Sudeste 6 Este 0 -- -- 93
2019-07-29 01:00:00 35.7 3 Sudeste 10 Sudeste 0 -- -- 92
2019-07-29 00:00:00 31.8 6 Sudeste 10 Sudeste 0 -- -- 91
2019-07-28 23:00:00 -- 3 Sudeste 11 Sudeste 0 -- -- 92
2019-07-28 22:00:00 -- 3 Sur 9 Sudoeste 0 -- -- 92
2019-07-28 21:00:00 -- 2 Oeste 15 Oeste 0 -- -- 90
2019-07-28 20:00:00 -- 6 Oeste 22 Noroeste 0 -- -- 88
2019-07-28 19:00:00 -- 6 Sudoeste 23 Oeste 0 -- -- 88
2019-07-28 18:00:00 -- 9 Sudoeste 23 Sudoeste 0 -- -- 84
2019-07-28 17:00:00 -- 8 Oeste 26 Oeste 0 -- -- 84
2019-07-28 16:00:00 -- 7 Sudoeste 21 Oeste 0 -- -- 84
2019-07-28 15:00:00 -- 7 Sudoeste 27 Sudoeste 0 -- -- 84
2019-07-28 14:00:00 -- 9 Sudoeste 24 Sudoeste 0 -- -- 83
2019-07-28 13:00:00 -- 8 Sudoeste 25 Sudoeste 0 -- -- 83
2019-07-28 12:00:00 -- 8 Sudoeste 20 Oeste 0 -- -- 83
2019-07-28 11:00:00 -- 6 Oeste 24 Oeste 0 -- -- 85
2019-07-28 10:00:00 -- 9 Sudoeste 24 Sudoeste 0 -- -- 87
2019-07-28 09:00:00 -- 7 Sudoeste 19 Sudoeste 0 -- -- 90
2019-07-28 08:00:00 38 6 Sudoeste 16 Oeste 0 -- -- 90
2019-07-28 07:00:00 34.5 5 Sudoeste 15 Sudoeste 0 -- -- 91
2019-07-28 06:00:00 34.5 5 Sudoeste 22 Sudoeste 0 -- -- 90
2019-07-28 05:00:00 31.3 8 Sudoeste 20 Sudoeste 0 -- -- 89
2019-07-28 04:00:00 40.9 9 Sudoeste 21 Sudoeste 0 -- -- 89
2019-07-28 03:00:00 -- 7 Sudoeste 30 Sudoeste 0 -- -- 89
2019-07-28 02:00:00 -- 8 Sudoeste 23 Sudoeste 0 -- -- 87
2019-07-28 01:00:00 -- 8 Sudoeste 22 Oeste 0 -- -- 89
2019-07-28 00:00:00 -- 9 Sudoeste 25 Oeste 0 -- -- 88
2019-07-27 23:00:00 -- 9 Sudoeste 26 Sudoeste 0 -- -- 87
2019-07-26 12:00:00 -- 7 Sur 21 Sudeste 0 -- -- 86
2019-07-26 11:00:00 -- 6 Sur 20 Sudeste 0 -- -- 88
2019-07-26 10:00:00 -- 7 Sudeste 18 Sudeste 0 -- -- 90
2019-07-26 09:00:00 -- 5 Sudeste 14 Sudeste 0 -- -- 92
2019-07-26 08:00:00 47.7 3 Sudeste 6 Sudeste 0 -- -- 93
2019-07-26 07:00:00 34.9 2 Nordeste 7 Nordeste 0 -- -- 92
2019-07-26 06:00:00 -- 3 Sudeste 7 Este 0 -- -- 93
2019-07-26 05:00:00 42.8 4 Este 10 Sudeste 0 -- -- 93
2019-07-26 04:00:00 -- 5 Sudeste 8 Este 0 -- -- 93
2019-07-26 03:00:00 -- 3 Sudeste 8 Este 0 -- -- 93
2019-07-26 02:00:00 -- 2 Norte 9 Sudeste 0 -- -- 92
2019-07-26 01:00:00 -- 4 Sudeste 10 Sudeste 0 -- -- 92
2019-07-26 00:00:00 -- 5 Este 13 Sudeste 0 -- -- 92